Location: Albany
(35.0170°S, 117.8920°E)
Time: 21:45:36
(UTC+08:00)

A-11 Canister half - Pass Details

Date: 28 January 2021
Orbit: 1525 x 1684 km, 47.3° (Epoch: 03 March)

Event Time Altitude Azimuth Distance (km) Brightness Sun altitude
Rises 00:10:05 0° 328° (NNW) 4,914 - -36.6°
Reaches altitude 10° 00:13:21 10° 333° (NNW) 3,937 - -36.7°
Maximum altitude 00:23:04 53° 46° (NE) 2,003 - -36.7°
Exits shadow 00:25:09 47° 80° (E) 2,132 9.5 -36.7°
Drops below altitude 10° 00:32:45 10° 118° (ESE) 3,928 11.4 -36.6°
Sets 00:35:58 0° 123° (ESE) 4,902 12.1 -36.6°
